Theta_e
284 284 284 284 284 285 286 286 286 286 286 286 286 287 287 287 287 287 288 287 287 287 287 287 287 287 287 288 289 289 289 290 290 291 291 291 291 292 292 292 292 293 293 293 293 293 293 294 294 294 294 294 294 295 295 295 295 296 296 296 297 297 297 298 298 298 299 299 299 299 299 299 299 298 298 298 298 298 298 298 298 299 299 299 299 299
284 285 285 284 285 285 286 286 286 285 285 285 286 286 286 286 286 286 287 287 287 287 287 287 287 287 286 287 288 289 289 289 290 290 290 291 291 291 291 292 292 292 292 292 293 293 293 293 293 294 294 294 294 294 294 295 295 295 295 296 296 296 297 297 297 297 298 298 298 298 298 298 297 297 297 297 297 297 298 298 298 298 298 299 299 299
284 284 285 285 285 285 285 286 286 286 286 286 286 286 286 286 286 286 286 286 287 287 287 287 286 286 286 286 287 288 288 289 289 290 290 290 291 291 291 291 292 292 292 292 292 292 293 293 293 293 294 294 294 294 294 294 295 295 295 295 295 295 296 296 296 296 296 296 296 296 296 296 296 296 296 297 297 297 297 298 298 298 298 298 299 299
284 284 285 285 286 286 286 286 286 286 286 286 286 286 286 285 285 286 286 286 286 286 287 286 286 286 285 286 286 287 288 288 289 289 290 290 290 290 291 291 291 291 292 292 292 292 292 293 293 293 293 293 294 294 294 294 294 294 294 294 295 295 295 295 295 295 295 295 295 295 295 295 295 296 296 296 297 297 297 297 297 297 297 298 298 299
284 284 285 285 285 286 286 286 286 286 286 286 286 286 286 286 286 286 286 286 286 286 286 286 285 285 285 285 285 286 287 288 288 289 289 289 290 290 290 290 291 291 291 292 292 292 292 293 293 293 293 293 293 294 294 294 294 294 294 294 294 294 294 294 294 294 294 294 294 294 294 294 295 295 295 296 296 296 297 297 297 297 297 297 298 298
284 285 285 285 285 285 286 286 286 286 286 286 286 286 286 286 286 286 286 285 285 285 285 285 285 285 285 285 285 286 287 287 288 288 288 289 289 289 290 290 290 291 291 291 292 292 292 292 293 293 293 293 293 293 293 293 293 293 293 293 293 293 293 293 293 293 293 293 293 293 294 294 294 294 294 295 295 296 296 296 296 297 297 297 297 298
284 284 285 285 285 286 286 286 286 286 286 285 285 285 286 286 286 285 285 285 285 284 284 285 285 285 284 285 285 286 286 287 287 287 288 288 288 289 289 290 290 290 291 291 291 292 292 292 292 292 292 293 293 293 293 293 293 292 292 292 292 292 292 292 293 293 293 293 293 293 293 293 293 294 294 294 294 295 295 296 296 296 296 297 297 297
283 284 284 285 285 285 286 286 286 286 286 285 284 284 284 285 285 285 285 285 284 284 284 284 284 284 284 284 285 285 285 285 286 286 287 287 288 289 289 289 290 290 291 291 291 291 291 292 292 292 292 292 292 292 292 292 292 292 292 292 292 292 292 292 292 292 292 292 292 292 292 293 293 293 293 293 294 294 294 295 295 296 296 296 297 297
282 283 283 284 285 285 285 285 286 287 286 285 284 284 283 283 283 284 284 284 284 284 283 283 283 283 283 284 284 285 285 285 285 285 286 287 287 288 288 289 290 290 290 290 291 291 291 291 291 291 291 291 291 291 291 291 291 291 291 291 291 291 291 291 291 291 292 292 292 292 292 292 292 292 293 293 293 293 294 294 295 295 296 296 297 297
282 282 283 285 285 285 284 284 285 286 287 285 285 284 283 282 282 282 282 282 283 283 283 283 282 282 283 283 284 284 285 285 286 287 287 287 287 288 288 288 289 289 290 290 290 290 290 290 290 290 290 290 291 290 290 290 290 290 290 290 290 290 291 291 291 291 291 291 291 292 292 292 292 292 293 293 293 293 294 294 294 295 296 296 297 297
283 283 284 285 285 285 285 285 285 285 286 285 285 284 283 282 282 281 280 280 281 282 282 282 282 282 282 283 283 284 285 285 285 286 287 287 288 288 288 288 288 288 289 289 289 289 289 289 289 289 289 289 289 289 289 289 289 289 289 289 289 290 290 290 290 291 291 291 291 292 292 292 292 293 293 293 293 294 294 294 294 295 295 296 296 297
283 284 284 284 284 284 284 284 285 285 285 284 283 282 282 283 282 281 280 280 280 281 281 282 282 282 282 282 283 284 284 284 284 285 286 286 287 287 287 287 287 287 287 288 288 288 288 288 288 288 288 288 288 288 288 288 288 288 289 289 289 289 289 290 290 290 291 291 291 292 292 292 292 293 293 293 293 294 294 294 294 294 295 295 296 296
283 284 284 284 284 283 283 283 283 283 283 283 282 281 281 282 282 282 281 280 280 280 281 281 282 282 283 284 284 284 284 284 284 284 285 285 286 286 285 285 285 285 286 286 286 286 287 287 287 287 288 287 287 288 288 288 288 288 288 288 289 289 289 290 290 290 291 291 291 292 292 292 292 293 293 293 293 294 294 294 294 294 294 295 295 296
283 283 283 283 283 283 283 282 282 282 282 282 282 281 281 282 282 281 281 280 280 281 281 281 281 282 283 284 284 285 284 284 284 284 284 285 285 286 285 284 284 284 284 284 284 285 286 286 286 286 287 287 287 287 287 287 287 288 288 288 289 289 289 290 290 290 291 291 291 291 292 292 292 292 293 293 293 293 293 294 294 294 294 294 295 295
283 283 282 282 282 282 282 282 282 282 282 282 282 282 282 282 281 281 280 280 280 281 281 281 281 281 282 284 285 285 285 284 284 283 283 284 285 286 285 284 284 284 284 284 284 284 286 285 285 285 285 285 286 286 286 287 287 288 288 289 289 289 290 290 290 290 291 291 291 291 292 292 292 292 292 293 293 293 293 293 293 294 294 294 294 295
283 283 282 282 282 282 282 282 282 282 282 282 282 282 281 281 281 281 280 280 280 280 280 280 280 280 281 284 285 285 285 284 283 283 282 283 284 285 285 284 283 283 283 283 283 284 284 285 284 284 284 285 286 286 287 287 288 288 288 289 289 289 290 290 290 290 291 291 291 291 291 292 292 292 292 293 293 293 293 293 293 293 294 294 294 294
283 283 282 282 281 282 282 283 282 282 282 282 282 282 281 281 281 281 280 280 280 280 279 279 278 278 279 281 284 285 286 284 283 282 282 282 283 284 285 284 282 282 282 283 283 283 284 284 284 284 284 285 286 286 287 287 288 288 289 289 289 289 290 290 290 290 290 291 291 291 291 291 292 292 292 292 292 292 293 293 293 293 293 294 294 294
283 283 282 282 281 281 282 282 282 282 282 282 281 282 282 282 282 281 281 280 280 279 279 279 279 278 278 279 282 284 286 284 282 281 281 281 282 283 284 284 283 282 282 282 283 283 284 284 284 284 284 286 286 287 287 287 288 288 288 289 289 289 289 290 290 290 290 291 291 291 291 291 292 292 292 292 292 292 292 293 293 293 293 293 294 294
283 283 282 281 281 282 282 282 282 282 282 282 282 282 282 282 282 282 281 281 280 280 280 279 279 279 279 279 281 284 285 284 282 281 279 279 281 282 284 283 282 282 282 282 282 283 283 284 284 285 286 286 286 287 287 287 288 288 288 289 289 289 289 290 290 290 290 291 291 291 291 291 291 291 292 292 292 292 292 292 292 293 293 293 293 293
282 282 282 282 282 282 281 282 282 283 283 283 283 282 281 281 281 281 281 281 281 281 281 280 280 280 280 280 281 283 284 283 282 280 279 279 280 281 283 282 282 281 281 281 282 283 283 283 284 284 285 286 286 287 287 287 287 288 288 288 289 289 289 289 290 290 290 290 291 291 291 291 291 291 291 291 291 291 292 292 292 292 293 293 293 293
282 282 282 283 282 282 281 282 283 284 285 284 283 282 281 281 281 281 281 281 281 281 281 280 280 280 280 280 281 282 284 283 281 279 278 278 279 280 282 282 281 280 280 281 282 283 283 283 283 284 285 285 286 286 287 287 287 288 288 288 289 289 289 289 289 290 290 290 290 291 291 291 291 291 291 291 291 291 291 292 292 292 292 292 293 293
282 282 283 284 283 283 283 283 284 285 285 285 283 282 281 281 281 281 281 281 281 280 280 280 280 281 281 281 281 282 284 283 281 279 278 277 278 279 281 282 281 280 280 281 282 283 283 283 283 284 285 286 286 286 287 287 288 288 288 288 289 289 289 289 289 290 290 290 290 290 290 290 290 291 291 291 291 291 291 291 291 292 292 292 292 292
284 284 284 284 284 284 284 284 284 285 286 284 283 283 283 282 282 281 281 281 281 281 280 280 281 281 281 281 282 283 283 283 282 280 278 276 277 279 281 281 281 280 280 281 282 282 283 283 283 284 285 286 286 287 287 287 287 288 288 288 288 289 289 289 289 289 289 290 290 290 290 290 290 290 290 290 290 290 291 291 291 291 291 292 292 292
285 285 284 285 285 285 284 284 284 285 285 285 285 284 284 284 284 283 282 282 281 281 281 281 280 280 280 281 281 282 282 283 282 280 278 277 277 278 280 281 280 279 280 281 282 282 282 282 283 283 284 285 286 286 287 287 287 288 288 288 288 288 289 289 289 289 289 289 289 290 290 290 290 290 290 290 290 290 290 290 290 290 291 291 291 291
285 285 285 285 285 286 285 285 285 285 285 285 285 284 284 284 284 283 283 282 281 281 280 279 278 278 278 279 280 280 281 282 281 280 278 277 277 278 280 280 280 279 279 281 282 282 282 282 282 283 284 285 285 286 287 287 287 287 288 288 288 288 288 288 288 289 289 289 289 289 289 289 289 289 289 289 289 290 290 290 290 290 290 290 291 291
286 286 286 286 286 287 287 286 286 286 286 285 284 283 283 283 282 282 281 281 280 280 279 277 276 276 277 278 278 279 280 281 281 280 279 278 277 278 279 280 280 279 279 280 281 281 281 281 282 283 283 284 285 286 286 286 287 287 287 287 288 288 288 288 288 288 288 289 289 289 289 289 289 289 289 289 289 289 289 290 290 290 290 290 290 290
286 286 286 286 286 286 286 286 286 286 286 285 285 284 283 282 281 280 279 279 279 278 277 276 275 275 276 276 277 278 280 281 281 281 280 278 277 277 278 280 280 280 279 280 280 281 281 281 281 282 283 283 284 285 286 286 286 286 287 287 287 287 287 288 288 288 288 288 288 288 288 288 289 289 289 289 289 289 289 289 289 289 290 289 289 289
285 285 284 284 284 284 284 284 284 284 285 285 285 284 284 282 280 278 278 279 278 278 276 275 275 275 275 275 276 278 279 280 280 281 281 279 277 277 278 280 280 279 279 279 280 281 281 281 281 282 282 283 283 284 285 286 286 286 286 286 286 287 287 287 287 287 287 287 288 288 288 288 288 288 289 289 289 289 289 289 289 289 289 288 288 287
282 282 282 282 282 283 283 283 283 283 283 284 284 284 283 281 280 278 278 278 278 277 276 275 275 275 275 276 276 277 278 279 280 281 281 279 277 277 279 279 279 279 278 278 279 279 280 281 281 282 282 283 283 284 284 285 285 285 286 286 286 286 286 286 287 287 287 287 287 287 288 288 288 288 288 288 288 289 289 289 289 288 288 287 287 286
280 280 280 280 280 281 281 280 280 281 282 282 283 283 283 281 280 279 279 279 278 276 276 275 275 275 275 275 275 276 277 279 280 281 280 278 277 277 279 279 279 279 278 277 277 277 278 280 281 282 282 283 283 283 283 284 284 284 284 285 285 285 286 286 286 286 287 287 287 287 287 287 288 288 288 288 288 288 288 288 288 287 286 286 286 286
278 278 278 278 279 279 279 279 279 280 280 281 281 282 282 281 280 280 280 279 278 277 276 276 276 276 276 275 274 274 275 278 281 282 281 278 277 277 278 278 278 279 279 277 275 274 275 277 280 281 282 282 282 282 283 283 283 283 283 283 284 284 285 285 285 286 286 286 287 287 287 287 287 287 287 287 288 288 288 288 288 287 285 285 285 285
277 277 277 278 278 278 278 278 279 279 279 279 280 280 280 281 281 280 280 280 279 278 277 277 276 276 276 275 275 274 275 278 281 282 281 279 278 278 278 278 278 278 279 278 277 275 274 275 277 279 281 281 281 282 282 283 283 283 283 283 283 283 285 285 285 285 285 286 286 286 286 286 286 287 287 287 287 287 287 287 287 287 285 284 284 284
277 277 277 278 278 278 278 278 278 278 278 279 279 279 280 280 281 281 281 280 280 279 278 277 277 276 276 276 276 276 276 278 280 282 281 279 278 278 278 278 278 278 278 278 278 277 275 275 276 278 279 280 281 281 282 283 283 283 283 282 282 282 284 284 284 284 284 285 285 285 286 286 286 286 286 286 286 287 287 287 287 287 286 284 284 284
277 277 277 277 277 277 278 278 278 278 278 279 279 280 280 280 280 280 281 280 280 280 279 278 277 277 276 276 276 276 277 279 281 282 282 280 278 278 278 277 277 277 277 277 277 277 276 276 276 277 278 279 280 281 281 282 283 283 283 282 282 282 283 283 283 283 283 284 284 284 284 284 285 285 285 286 286 286 286 286 287 287 287 285 284 284
276 276 277 277 277 277 278 278 278 278 279 279 280 280 280 280 280 280 280 280 280 280 280 279 278 278 277 276 276 276 277 279 281 282 282 280 279 278 277 277 277 277 276 276 276 276 276 276 277 277 277 278 279 280 281 282 282 283 283 283 283 282 283 283 283 283 283 283 283 283 283 283 284 284 284 285 285 286 286 286 287 287 287 287 286 285
276 276 276 277 277 277 278 278 278 278 279 279 279 279 280 280 280 280 280 280 280 280 280 280 280 280 279 278 277 277 277 279 281 282 282 280 279 278 277 277 277 277 276 276 276 276 276 276 277 277 277 276 277 278 280 282 282 282 282 283 283 283 283 283 283 283 282 282 282 282 282 283 283 283 284 285 285 286 286 286 287 287 287 287 287 287
275 276 276 277 277 277 278 278 278 278 278 279 279 279 280 280 280 280 280 280 280 280 280 281 281 281 281 280 279 279 279 280 281 281 281 281 280 279 277 277 278 278 277 276 276 276 276 276 276 276 276 276 276 277 279 280 281 281 281 282 282 282 283 283 283 283 282 282 282 282 282 283 283 283 284 285 285 286 286 286 286 287 287 287 287 287
276 276 276 277 277 277 277 277 278 278 278 278 279 279 279 280 280 280 280 280 280 280 280 280 280 281 281 281 281 281 280 281 281 281 281 281 280 279 278 278 278 278 278 277 277 276 276 275 275 275 275 276 277 278 279 279 279 279 280 281 282 282 282 283 283 283 283 282 283 283 283 283 283 283 284 284 284 284 284 284 285 286 286 286 287 287
276 276 276 277 277 277 277 277 277 278 278 279 279 279 280 280 280 280 280 280 280 280 280 280 280 280 280 281 281 281 281 281 281 281 281 280 280 279 279 278 278 278 279 278 278 277 276 276 275 275 275 276 277 278 278 279 279 279 279 280 281 281 282 283 283 283 283 283 283 283 283 283 283 283 283 283 283 283 283 283 283 284 285 284 285 285
276 276 276 277 277 277 277 277 278 278 279 279 279 280 280 280 280 280 280 280 280 280 281 281 280 280 280 281 281 281 281 281 281 281 281 281 280 280 279 278 278 278 279 279 278 278 277 277 276 276 276 276 276 277 277 278 279 279 279 279 279 280 282 282 283 283 283 283 282 282 282 283 283 283 283 283 283 282 282 282 283 283 284 284 283 283
276 276 276 277 277 278 278 278 279 279 279 279 279 279 279 279 279 279 279 280 280 280 281 281 280 280 280 281 281 281 281 281 282 281 281 281 281 281 280 279 279 279 278 278 278 278 278 277 277 276 277 277 277 277 277 278 279 280 280 278 278 279 281 282 282 283 283 283 283 282 283 283 283 283 283 283 283 283 283 283 283 283 284 284 283 282
276 276 276 277 277 277 278 279 279 279 279 279 278 278 278 278 278 278 278 278 279 279 280 279 279 279 279 280 280 281 281 282 282 282 281 281 281 281 280 280 280 279 278 278 278 278 278 278 277 277 277 277 276 276 277 278 279 280 279 279 279 280 281 281 282 283 282 283 283 283 283 283 282 282 283 283 283 283 284 284 284 284 284 283 283 283
276 276 276 277 277 278 279 279 279 279 279 278 278 278 278 278 278 278 278 278 278 278 279 279 278 278 278 278 278 280 281 282 282 282 282 281 281 281 280 280 280 279 279 278 277 277 278 278 278 278 278 278 277 276 276 277 278 279 279 280 280 279 278 279 281 282 282 282 282 283 283 282 282 282 283 283 283 283 284 284 284 285 285 284 284 284
276 276 277 277 278 278 278 278 278 278 278 277 277 277 278 279 279 279 278 278 278 278 278 278 278 278 277 277 278 279 280 281 282 283 283 283 282 282 281 281 281 280 280 278 277 277 277 278 278 278 279 278 278 277 277 277 278 278 279 280 280 279 278 279 280 281 282 282 282 282 282 283 283 283 283 283 283 283 283 283 283 283 284 284 284 284
276 277 277 278 278 278 277 277 277 277 277 277 277 277 278 278 279 279 278 278 278 278 278 278 277 277 276 277 277 278 279 280 281 282 282 283 283 283 283 282 281 281 280 280 279 278 277 277 278 278 279 279 278 278 277 278 278 278 279 280 280 280 280 281 281 281 281 281 281 282 283 283 283 282 282 282 282 282 283 283 283 283 283 284 284 284
277 277 277 277 277 276 276 277 277 277 277 277 277 277 278 278 278 278 278 278 277 277 278 278 277 276 275 276 277 277 277 278 279 280 281 282 283 283 283 283 282 282 281 280 280 280 279 278 278 278 279 279 278 278 278 278 278 278 279 280 280 280 280 281 281 281 281 281 281 282 283 283 282 282 281 281 281 282 282 283 283 283 283 284 284 284
276 276 276 276 276 276 276 276 276 276 276 277 277 277 278 278 278 278 278 278 278 277 277 277 277 276 276 276 276 276 276 277 278 279 280 281 281 282 282 283 283 283 282 281 281 281 280 280 280 279 278 278 277 278 279 279 279 279 279 279 280 280 280 280 281 281 282 282 282 282 283 282 282 281 280 281 281 281 282 283 283 283 284 284 284 284
276 276 276 276 276 276 276 276 276 276 276 276 277 277 278 278 278 278 277 278 278 277 277 277 276 276 276 276 276 277 277 277 277 278 279 280 280 281 282 282 282 282 283 283 282 282 282 282 281 281 280 278 278 277 278 279 280 280 280 280 280 280 279 280 281 282 282 282 282 282 283 282 281 280 280 280 280 281 281 282 283 284 284 284 284 284
276 276 276 276 275 275 275 276 276 276 276 276 276 277 277 278 278 278 277 277 277 277 276 276 275 275 275 276 276 277 277 277 278 278 278 279 280 280 281 281 281 281 281 282 282 282 282 283 283 283 282 281 280 279 279 279 280 280 280 280 280 280 280 280 281 282 282 282 283 283 283 282 282 282 281 280 280 280 281 282 283 284 284 285 285 285
275 275 275 275 275 275 275 276 276 276 276 276 276 277 277 278 278 278 278 277 277 277 276 276 275 275 275 276 276 277 277 277 278 278 279 279 280 280 280 280 280 280 280 280 280 281 281 281 282 283 284 284 283 281 280 280 280 281 281 281 281 281 280 281 281 282 283 283 283 283 283 283 283 283 282 281 280 280 281 281 282 283 284 285 285 286
275 275 275 275 275 275 275 275 276 276 276 276 276 276 277 277 277 277 277 277 277 276 276 276 276 275 275 276 276 277 277 277 278 278 278 279 280 280 280 279 279 278 278 278 278 278 278 278 279 280 282 285 285 284 282 281 281 281 281 281 281 282 281 281 282 283 283 283 283 283 283 283 283 282 282 281 280 280 280 281 282 283 284 285 285 285
Wind_Speed
1 1 1 2 2 3 3 2 3 5 6 6 6 6 6 7 7 8 9 9 9 9 9 9 10 11 12 14 16 17 18 19 20 20 21 21 21 21 21 20 20 20 20 20 20 20 20 20 20 20 20 20 20 19 19 19 19 19 20 20 20 20 21 21 21 22 22 22 22 22 22 23 23 23 23 23 23 24 24 24 25 25 25 25 25 25
1 1 1 2 2 3 3 2 3 4 6 7 7 7 7 8 7 7 7 8 9 9 8 9 10 11 12 12 14 16 18 19 20 20 21 21 21 21 21 21 21 20 20 20 20 20 20 20 20 19 19 19 19 19 19 19 19 19 20 20 20 20 21 21 21 22 22 22 23 23 23 23 23 23 23 24 24 24 25 25 25 25 25 25 25 25
1 1 2 2 1 2 4 4 4 4 5 6 7 7 8 9 8 7 7 7 8 8 8 9 9 10 11 11 13 15 17 19 20 20 21 21 21 21 21 21 21 21 20 20 20 20 19 19 19 19 19 19 19 19 19 19 19 19 20 20 20 21 21 21 22 22 22 23 23 23 23 24 24 24 24 24 25 25 25 25 25 25 25 25 25 25
1 2 2 1 1 2 3 4 4 4 4 6 7 8 8 7 7 7 7 8 8 8 8 9 9 9 9 9 11 14 17 19 20 21 21 21 21 21 21 21 21 20 20 20 19 19 19 19 19 19 19 19 19 19 19 19 20 20 20 20 21 21 21 22 22 22 23 23 23 23 23 24 24 24 24 24 25 25 25 25 25 25 25 25 25 25
2 2 1 2 2 2 2 3 3 4 4 5 6 7 7 7 7 7 7 8 8 8 8 8 8 8 8 8 10 14 17 19 20 21 21 21 21 21 21 20 20 20 20 20 19 19 19 19 19 19 19 19 20 20 20 20 20 20 21 21 21 22 22 22 22 23 23 23 23 23 23 23 23 24 24 24 24 25 25 25 25 25 25 25 25 25
1 1 1 1 2 3 3 3 3 4 4 5 6 6 7 7 7 7 7 7 7 7 7 7 8 8 9 9 11 14 17 19 20 20 20 20 20 20 20 20 20 20 20 20 19 19 19 20 20 20 20 20 20 20 21 21 21 21 22 22 22 22 22 22 22 22 22 22 22 22 22 22 23 23 23 23 24 24 24 25 25 25 25 25 25 25
1 1 1 2 2 3 3 3 4 4 4 5 6 6 6 6 6 7 7 6 6 6 6 7 7 8 9 10 12 14 15 17 18 18 18 19 19 19 19 19 19 19 19 20 20 20 20 20 20 20 21 21 21 21 22 22 22 22 22 23 23 23 22 22 22 22 22 22 22 22 22 22 22 22 23 23 23 24 24 24 24 25 25 25 25 25
2 2 2 2 3 3 3 3 4 4 5 5 6 6 7 6 6 6 7 6 5 5 6 7 7 8 8 10 11 12 12 13 13 13 14 15 15 16 17 17 18 19 19 19 20 20 20 20 21 21 21 22 22 22 23 23 23 23 23 23 23 22 22 22 22 22 22 22 22 22 22 22 22 22 22 23 23 23 24 24 24 25 25 25 26 26
3 3 3 3 4 4 4 4 4 5 5 5 6 6 7 7 6 6 6 6 6 6 6 7 8 8 8 9 9 10 10 10 10 10 11 11 12 13 15 16 17 18 19 19 20 20 21 21 22 22 22 23 23 23 24 24 23 23 23 23 22 22 22 22 22 22 22 22 22 22 22 22 22 22 23 23 23 23 24 24 24 25 25 25 26 26
3 4 4 4 3 3 4 5 5 5 5 5 5 5 6 7 7 7 7 7 6 6 6 7 8 8 8 8 8 9 10 10 11 12 13 12 13 14 15 15 15 16 18 19 20 21 21 22 22 23 23 23 23 24 23 23 23 23 22 22 22 22 22 22 22 22 22 22 22 22 22 22 22 23 23 23 23 24 24 24 24 25 25 25 26 26
3 3 4 4 3 3 3 4 5 5 5 5 4 3 3 4 5 7 9 8 8 7 6 7 7 8 8 8 8 8 9 9 9 10 12 13 14 15 15 15 15 15 17 18 19 20 21 22 22 22 23 23 23 23 23 22 22 22 22 22 22 22 22 22 22 22 22 22 22 23 23 23 23 23 23 24 24 24 24 24 24 24 25 25 25 26
3 3 3 3 3 3 3 4 4 5 5 4 4 4 3 3 4 6 8 9 9 8 8 7 7 7 8 8 8 8 8 8 8 8 8 9 9 10 10 10 11 12 14 15 17 18 20 20 21 21 21 21 22 22 21 21 21 22 22 22 22 22 22 22 22 23 23 23 23 23 23 23 23 24 24 24 24 24 24 24 24 25 25 25 25 26
2 2 2 3 3 3 4 4 4 4 4 4 5 5 5 5 5 6 7 8 8 8 8 8 7 7 7 7 7 7 7 7 7 7 7 6 6 6 6 7 7 8 10 11 11 13 16 18 18 19 19 20 20 20 21 21 21 21 22 22 22 23 23 23 23 23 23 23 24 24 24 24 24 24 24 24 24 24 24 25 25 25 25 25 25 25
3 3 3 3 4 4 4 5 5 5 4 4 4 5 5 5 6 6 7 7 8 8 8 8 8 7 6 7 7 7 7 7 7 7 7 6 6 6 6 7 7 8 8 9 9 10 12 13 14 14 17 17 18 19 19 20 21 22 22 23 23 23 23 24 24 24 24 24 24 24 24 24 24 25 25 25 25 25 25 25 25 25 25 25 25 25
3 3 4 5 5 5 4 5 5 6 5 4 4 5 6 6 6 6 7 8 8 8 8 8 8 7 5 5 6 6 6 6 6 7 7 7 6 7 7 8 8 8 8 9 9 10 11 11 11 11 12 15 16 17 19 20 21 23 23 24 24 24 24 24 24 24 25 25 25 25 25 25 25 25 25 25 25 25 25 25 25 25 25 25 25 25
2 3 4 5 5 5 5 5 5 5 5 5 5 5 6 6 6 6 7 8 8 7 7 8 8 7 5 5 5 6 6 6 6 7 8 8 7 7 8 8 8 8 8 9 9 9 9 9 10 11 12 15 18 20 22 22 23 24 24 25 25 25 25 25 25 25 25 25 25 25 25 25 25 25 25 25 25 25 25 25 25 25 25 25 25 25
2 3 4 5 5 5 5 5 5 5 5 5 5 5 6 6 6 6 7 7 7 6 5 6 6 6 5 4 4 4 5 5 6 7 8 8 8 7 7 8 8 9 9 9 9 8 8 9 9 10 11 15 18 21 23 23 24 25 25 26 26 26 26 26 26 26 26 26 26 26 26 26 25 25 25 25 25 25 25 25 25 25 25 25 25 25
3 3 4 5 5 5 5 5 5 5 5 5 5 5 5 5 6 6 7 7 6 6 6 5 5 5 5 5 4 4 5 6 7 7 8 8 8 8 7 8 8 9 9 9 9 8 8 9 9 10 12 17 21 23 24 25 25 26 26 26 26 26 26 26 26 26 26 26 26 26 26 26 26 26 26 25 25 25 25 25 25 25 25 25 25 25
4 4 4 5 5 5 5 5 5 5 5 5 5 5 6 6 6 7 7 7 6 6 6 6 5 5 6 6 6 6 7 7 8 8 8 8 8 8 7 7 8 8 9 9 9 9 9 9 11 14 17 20 23 24 25 25 26 26 26 27 27 27 27 27 27 27 26 26 26 26 26 26 26 26 26 26 25 25 25 25 25 25 25 25 26 26
5 5 5 5 6 6 5 5 5 5 5 5 6 7 7 7 7 7 7 6 6 5 5 6 6 6 6 8 8 8 8 8 8 8 8 9 9 8 7 7 8 8 9 9 8 8 8 9 11 13 17 20 22 23 25 25 26 26 27 27 27 27 27 27 27 27 27 27 27 27 26 26 26 26 26 26 25 25 25 25 25 25 25 25 26 26
5 6 5 5 5 5 5 4 5 6 7 7 8 8 8 7 7 6 6 5 5 5 5 6 6 7 7 8 9 9 8 8 7 6 6 7 7 7 7 7 7 8 9 9 8 8 8 9 10 11 14 18 21 23 25 25 26 27 27 27 27 27 27 27 27 27 27 27 27 27 26 26 26 26 26 26 25 25 25 25 25 25 25 25 26 26
5 6 6 6 5 5 5 5 6 7 8 8 8 7 7 6 6 5 5 5 5 6 6 7 7 8 8 9 10 9 8 7 7 6 5 6 7 8 6 6 7 8 9 8 8 8 8 9 9 11 14 18 22 24 25 26 26 27 27 27 27 27 27 27 27 27 27 27 27 26 26 26 26 26 26 26 25 25 25 25 25 25 25 25 25 26
4 5 5 5 5 5 5 6 7 7 7 7 7 6 4 5 5 6 6 6 7 7 7 8 8 9 9 9 9 9 7 6 5 5 5 7 8 8 6 6 7 8 8 8 8 8 9 9 10 11 14 19 22 24 25 25 26 26 27 27 27 27 27 27 27 27 27 27 27 26 26 26 26 26 26 25 25 25 25 25 25 25 25 25 26 26
5 5 5 4 4 4 4 5 5 5 5 5 5 4 4 5 6 7 7 7 7 7 7 8 8 9 9 9 9 8 6 5 4 4 4 6 7 7 6 6 7 8 8 8 8 8 9 9 10 10 12 17 20 23 24 25 25 26 26 26 27 27 27 27 27 27 27 27 26 26 26 26 26 26 26 26 26 25 25 25 25 25 25 25 26 26
5 5 5 5 6 6 7 6 6 6 6 6 6 6 6 8 8 8 8 7 7 7 7 7 8 8 8 8 7 7 5 4 3 3 4 5 7 8 7 6 7 8 8 8 8 8 9 10 10 10 11 14 18 21 22 23 24 25 25 26 26 27 27 27 27 27 27 27 27 27 26 26 26 26 26 26 26 26 26 25 25 25 25 25 26 26
8 8 8 9 10 11 13 13 13 13 13 11 9 8 8 8 8 8 8 7 6 6 7 7 8 8 7 6 6 6 5 3 3 3 4 4 6 7 7 6 6 8 8 8 8 8 9 10 11 11 10 12 15 18 20 22 23 24 24 25 25 26 26 26 27 27 27 27 27 27 27 27 27 26 26 26 26 26 26 25 25 25 25 25 25 25
10 11 12 13 13 14 14 15 16 17 18 16 14 12 9 8 7 7 7 6 6 5 6 7 7 7 7 7 6 6 5 4 4 4 4 5 6 7 7 6 6 7 9 8 8 9 10 11 11 11 11 10 11 14 18 20 21 22 23 24 25 25 26 26 26 27 27 27 27 27 27 27 27 26 26 26 26 26 25 25 25 25 25 24 22 20
9 10 10 11 12 13 14 15 16 16 17 17 17 15 11 7 6 6 6 5 5 5 6 6 7 7 6 7 7 6 6 5 4 4 4 4 5 6 7 6 6 7 8 8 8 9 10 11 11 11 10 10 10 11 14 17 19 20 22 23 24 25 25 26 26 26 27 27 27 27 27 27 27 26 26 26 26 26 25 25 25 24 23 20 15 12
7 8 10 10 12 13 13 14 14 14 15 15 14 12 9 6 5 5 5 5 5 5 6 7 7 6 6 7 7 7 6 5 4 3 3 4 5 6 6 6 6 7 7 7 7 8 8 8 9 9 9 10 10 10 11 13 15 16 18 21 22 23 24 24 25 25 26 26 26 26 26 26 26 26 26 26 25 25 25 25 24 22 18 15 12 10
6 7 8 9 9 10 10 10 10 11 12 13 12 10 7 5 4 4 5 4 5 6 6 7 7 7 6 7 7 7 5 4 2 1 1 3 4 5 6 7 7 6 5 5 6 6 6 6 7 7 8 10 10 9 9 10 11 12 13 16 18 19 21 22 23 24 25 25 25 26 26 26 26 26 26 25 25 25 25 25 23 19 13 11 10 9
5 6 6 7 7 7 7 7 7 8 9 9 9 8 6 5 4 4 4 5 5 6 6 7 7 6 6 6 5 5 4 3 2 2 3 3 4 5 6 7 7 6 5 4 5 6 6 6 6 6 8 9 10 10 10 10 10 10 10 11 12 14 17 19 21 22 22 23 24 25 25 25 25 25 25 25 25 25 25 25 23 18 12 10 10 10
5 5 5 5 5 5 5 5 5 5 6 6 6 5 5 5 5 5 5 5 5 6 6 7 7 7 7 6 6 6 5 4 5 5 5 4 5 5 6 6 7 7 5 5 5 6 6 6 6 7 8 9 9 10 10 10 10 10 10 10 10 12 15 17 18 18 18 20 21 22 23 24 24 24 25 25 25 25 25 25 23 18 12 10 10 10
5 5 5 5 5 4 4 4 4 4 4 4 4 4 5 5 5 5 5 5 5 5 6 6 7 7 7 7 7 7 7 6 7 7 7 5 5 5 5 7 7 7 6 6 6 6 6 7 7 8 9 9 9 9 10 10 10 10 10 10 10 11 13 14 14 14 14 16 17 18 20 21 22 23 23 24 24 24 24 24 23 20 15 11 10 10
5 5 5 5 5 4 4 4 4 4 4 4 4 4 4 4 5 5 5 5 5 5 6 6 7 7 7 7 8 8 8 8 8 8 7 6 5 5 6 7 8 7 7 6 6 7 7 8 8 8 8 9 9 9 9 9 10 10 9 10 10 10 11 11 11 11 12 12 12 13 15 16 17 19 20 21 21 22 22 23 22 21 19 14 12 10
5 5 5 5 4 4 4 4 4 4 4 4 4 5 5 5 5 5 5 6 6 6 6 6 7 7 7 7 8 8 9 8 8 8 8 6 5 5 6 7 7 7 7 7 7 6 6 9 10 10 9 9 9 9 8 9 9 9 9 9 10 10 10 10 10 11 11 11 11 11 11 11 12 13 15 17 18 20 21 22 22 22 22 20 17 13
4 5 5 4 4 4 4 4 4 4 4 4 4 5 5 5 5 5 5 6 6 6 7 7 7 7 7 8 9 9 10 9 9 9 9 7 6 6 6 7 7 8 8 8 8 7 7 9 10 11 11 11 10 9 8 8 8 9 9 9 10 10 10 10 10 10 11 11 11 11 10 10 10 11 12 16 18 20 21 22 23 23 23 23 21 19
4 4 4 4 4 4 5 5 5 5 5 5 5 5 5 6 6 6 6 6 6 7 8 8 9 9 10 9 9 10 11 10 10 11 11 9 8 7 7 8 8 8 8 8 8 8 8 9 10 10 10 10 9 8 8 9 9 9 10 10 10 10 10 10 10 10 10 11 11 11 11 11 11 11 12 15 17 19 20 21 21 22 22 22 22 22
4 4 4 4 4 4 5 5 5 5 5 5 5 6 6 6 7 7 7 7 7 8 8 8 9 10 13 13 13 13 13 14 14 14 14 11 9 9 8 9 9 9 9 9 9 8 8 9 10 10 10 10 10 10 10 10 10 10 10 10 10 10 10 10 10 10 10 11 11 12 12 12 11 11 11 12 12 12 13 14 15 16 18 19 20 21
4 4 4 4 4 4 5 5 5 5 5 6 6 7 7 7 8 8 7 7 8 8 9 9 9 9 11 13 15 16 16 16 16 15 14 12 10 10 9 10 10 10 10 9 9 9 9 9 9 10 10 10 10 11 11 10 10 11 11 11 11 10 10 10 10 10 10 10 11 12 12 11 11 10 10 10 10 10 10 10 11 12 13 12 13 16
4 4 4 5 5 5 5 5 6 6 6 7 7 7 7 7 7 7 7 7 8 8 9 10 10 9 10 11 12 14 14 13 13 13 12 11 10 10 9 10 10 10 10 9 9 9 9 10 10 11 11 10 10 11 11 11 11 11 12 10 9 9 10 10 10 10 10 10 11 11 11 10 10 10 10 10 10 10 10 10 10 10 10 10 9 10
5 5 5 5 5 5 5 6 6 6 7 7 7 7 6 6 6 6 6 7 7 7 8 8 9 9 9 10 10 11 12 12 12 12 11 11 11 11 10 10 10 10 10 10 9 10 10 10 11 11 11 11 11 12 12 13 13 14 14 12 11 11 12 12 12 11 10 10 10 10 11 11 11 11 11 11 10 10 10 10 10 10 10 9 9 9
5 5 5 5 5 5 5 6 6 7 7 6 6 6 6 6 6 6 7 7 7 7 7 7 7 8 9 9 9 10 10 10 11 11 11 12 12 12 11 10 10 9 9 10 10 11 11 11 11 12 12 11 11 11 12 13 13 13 13 12 12 13 13 12 11 10 10 10 10 10 11 11 10 10 11 11 11 10 11 11 12 12 12 10 10 9
5 5 5 5 5 6 6 6 6 6 6 6 6 6 6 6 6 7 7 7 7 8 7 7 7 8 9 10 9 9 9 9 10 11 11 11 11 12 12 12 11 10 9 9 10 11 11 11 12 12 11 11 11 12 13 13 13 13 13 13 12 11 8 9 9 9 9 10 10 10 10 10 10 10 10 11 10 10 10 12 13 14 13 12 11 10
5 5 5 5 5 5 6 6 5 5 6 6 6 6 6 6 7 7 7 7 8 8 7 7 7 8 9 10 10 10 9 8 8 9 9 10 10 11 11 12 12 11 10 10 10 10 11 11 12 12 11 11 11 12 13 13 13 13 13 13 12 11 10 10 10 10 11 11 11 11 11 11 11 10 10 10 10 10 10 10 11 11 13 12 11 11
5 5 5 5 5 5 5 6 6 6 6 6 6 7 6 7 7 7 7 7 8 8 7 7 7 7 8 9 9 9 9 9 8 7 7 9 11 12 11 11 11 11 11 10 10 10 10 11 11 11 10 10 11 12 13 13 13 13 13 13 13 13 13 12 12 12 11 11 11 11 12 11 11 10 10 10 10 10 10 10 11 11 11 11 11 11
4 5 5 5 5 6 6 6 6 6 6 7 7 7 7 7 6 7 7 8 8 8 8 7 7 7 8 9 9 9 9 9 9 8 7 7 7 8 9 9 9 9 9 10 10 11 11 11 11 11 11 11 11 12 13 13 13 13 13 13 12 12 12 12 12 12 12 12 12 12 12 12 11 11 11 11 11 11 11 11 11 11 11 11 11 11
5 5 5 5 5 6 6 6 6 6 7 7 7 7 6 6 6 7 7 7 7 7 8 7 7 8 9 9 9 9 10 10 10 10 9 8 8 8 8 8 9 9 9 9 10 11 12 12 12 12 11 11 12 13 13 13 13 13 13 12 12 12 12 12 12 12 12 12 12 12 12 12 11 11 11 11 11 11 11 11 11 11 11 11 11 11
5 5 6 6 6 6 6 6 6 7 7 7 7 7 6 7 7 7 7 7 7 7 7 7 8 8 9 9 9 10 10 11 11 10 10 9 9 9 8 8 8 8 9 10 11 12 12 13 13 13 12 12 12 13 13 13 13 12 12 12 12 12 12 12 12 12 12 12 13 13 12 11 11 11 12 12 11 11 11 11 11 11 11 11 11 11
5 6 6 6 6 7 7 7 7 7 8 8 8 7 7 7 8 8 7 7 7 7 7 8 8 9 9 10 10 10 11 11 10 10 10 9 9 9 9 8 8 8 8 9 10 11 11 12 13 14 13 13 13 13 14 13 13 12 12 11 11 11 12 12 12 12 12 12 13 13 11 11 11 11 11 12 12 12 12 12 11 11 10 10 11 11
6 6 6 6 7 7 7 7 7 7 8 8 8 8 7 7 7 7 7 7 7 7 7 8 8 9 10 10 10 10 11 10 10 10 10 9 9 9 9 9 9 9 9 9 9 9 9 9 10 12 14 15 15 14 14 13 13 12 12 11 11 11 11 12 12 12 12 12 12 12 11 11 10 10 10 11 13 13 13 13 12 11 10 10 10 11
6 6 6 6 7 7 7 7 7 8 8 8 8 8 8 7 7 7 7 7 7 7 8 8 8 9 10 11 11 11 11 10 10 10 10 9 9 9 9 9 9 9 9 9 8 8 7 7 8 9 11 14 15 15 13 12 12 12 11 11 11 10 10 11 11 12 12 12 11 11 10 10 10 10 10 10 11 12 13 13 12 11 11 10 10 11
Wind_Direction
227 185 176 198 236 268 277 274 296 308 311 315 317 317 315 313 312 309 308 305 303 301 299 298 298 298 298 297 298 299 300 301 301 302 302 302 301 301 301 301 300 300 299 299 298 297 296 296 295 294 293 292 291 290 290 290 290 290 290 290 289 289 289 289 289 289 289 289 289 290 290 290 290 290 289 288 287 286 284 283 282 281 280 280 280 279
216 212 197 194 233 277 296 295 301 307 310 312 313 314 313 312 311 309 306 303 301 300 299 299 299 299 299 297 297 298 299 301 301 302 302 302 302 302 302 301 301 301 300 299 298 297 296 295 294 293 292 292 291 291 291 291 291 291 291 291 290 290 290 291 291 291 291 291 291 290 290 290 289 288 287 286 284 283 281 280 279 279 278 278 278 278
222 232 227 204 235 282 303 311 309 303 303 305 306 307 308 308 307 306 305 304 303 301 300 300 300 299 298 296 296 298 299 301 302 302 302 302 302 302 302 302 301 301 300 299 298 297 296 295 294 294 293 292 292 292 292 292 292 292 292 292 292 292 292 292 292 292 292 291 291 290 289 288 287 286 285 283 282 281 280 279 278 278 277 277 277 277
230 247 255 254 270 289 304 312 311 305 298 298 299 300 301 301 301 302 302 303 302 302 300 299 297 296 295 294 296 298 300 301 302 303 303 303 303 303 302 302 301 301 300 299 299 298 297 296 295 294 293 293 293 293 293 293 293 293 293 293 293 294 294 293 293 292 291 290 290 289 288 287 285 284 283 281 280 279 279 278 278 277 277 277 277 277
233 253 273 295 302 305 309 309 305 300 296 295 296 296 295 295 297 299 300 300 300 300 300 298 297 295 295 296 297 299 300 302 302 302 303 302 302 302 302 301 301 300 300 299 299 298 297 296 295 295 294 294 294 294 294 294 294 294 295 295 295 294 294 293 292 291 290 289 288 287 286 285 284 283 282 281 280 279 278 278 278 277 277 277 277 277
248 261 304 313 314 314 316 308 301 298 299 297 297 297 297 297 297 297 298 299 299 300 299 299 299 297 297 297 298 299 300 301 301 301 301 301 301 300 300 300 300 300 299 299 298 298 297 296 296 295 295 295 295 295 295 295 296 296 296 295 295 294 293 292 291 290 289 288 287 286 285 284 283 282 281 280 279 279 278 278 278 277 277 277 276 276
273 288 329 313 308 306 305 300 299 300 304 303 303 301 299 297 296 296 296 297 297 298 297 297 297 297 297 296 297 298 300 300 300 300 299 299 299 299 299 299 299 299 298 298 297 297 297 296 296 296 296 296 296 297 297 297 296 296 296 295 294 294 293 292 291 290 289 288 287 286 285 284 283 282 281 280 279 278 278 278 277 277 277 276 276 275
294 303 311 304 300 297 294 295 299 304 306 305 304 303 301 299 298 298 297 293 291 292 295 297 298 298 298 299 299 299 299 298 298 298 298 297 297 297 297 297 297 297 297 296 296 296 296 296 297 297 297 297 297 297 297 297 296 296 296 295 295 294 293 292 291 290 289 288 287 286 285 284 282 281 280 279 278 278 277 277 276 276 276 275 275 274
295 300 300 295 295 298 299 300 303 306 304 300 299 300 303 304 304 303 301 295 293 295 299 301 301 300 299 300 299 298 295 294 294 295 295 296 296 297 297 297 297 296 296 296 297 297 297 297 297 298 298 298 297 297 297 296 296 296 295 295 295 294 293 292 291 291 290 288 287 286 285 283 282 281 279 278 277 277 276 275 275 274 274 274 274 273
282 287 290 290 291 295 299 301 303 302 298 291 289 293 299 305 307 307 305 303 302 302 302 302 302 301 300 299 297 296 294 292 291 291 291 291 292 293 294 294 295 295 296 296 297 297 297 297 298 298 297 297 296 296 296 296 295 295 295 295 294 294 293 292 291 291 290 288 287 285 284 282 281 280 279 278 277 276 275 275 274 274 274 273 273 273
272 274 281 287 289 288 287 294 298 298 294 286 280 278 280 297 305 308 307 307 307 307 304 301 300 300 301 300 298 296 295 293 292 290 289 288 288 289 289 290 292 294 295 296 297 297 297 297 297 297 296 296 295 295 295 295 295 295 295 294 294 293 293 291 290 289 288 287 285 284 283 282 281 280 279 278 277 277 276 275 275 274 274 274 274 274
272 275 280 287 290 289 287 290 291 292 291 289 288 287 285 293 302 306 305 306 307 307 305 301 298 296 297 297 297 295 294 293 293 292 290 288 287 287 288 290 292 294 295 295 295 296 296 296 296 296 296 295 295 294 295 295 295 294 294 293 292 292 291 290 288 287 286 285 284 284 283 282 282 281 280 279 279 278 277 277 276 276 275 274 274 274
265 272 279 284 286 288 291 294 296 296 296 298 301 303 305 308 307 304 300 300 302 304 304 302 298 295 292 291 292 292 291 291 292 292 293 293 293 293 293 293 294 295 295 295 295 295 296 297 296 296 295 294 294 294 294 294 293 293 292 291 290 290 289 288 287 287 286 285 285 284 284 283 283 282 281 280 280 279 278 277 277 276 275 274 274 274
267 270 274 279 283 288 294 298 300 300 301 302 303 303 303 305 303 300 296 296 298 300 300 299 297 296 293 288 287 286 288 291 292 294 295 298 301 303 301 298 298 299 298 296 295 296 297 298 297 296 294 293 293 293 293 292 292 291 290 290 289 289 288 287 287 287 286 286 285 285 284 284 283 282 282 281 280 279 278 278 277 276 275 275 274 273
275 282 286 288 291 295 299 300 298 297 299 302 301 299 298 297 296 296 297 298 299 300 299 296 294 293 291 290 289 288 288 292 296 299 300 300 303 305 303 301 300 298 297 296 295 295 297 296 294 292 292 291 291 291 292 291 291 290 290 289 289 288 288 288 287 287 287 286 286 285 285 284 283 283 282 281 281 280 279 278 277 276 276 275 274 274
277 282 286 291 293 295 297 298 297 298 300 300 298 296 295 295 295 297 298 298 299 299 297 297 297 296 291 289 288 290 292 296 298 300 302 302 303 305 305 303 300 298 296 294 294 294 295 293 291 290 290 290 290 291 291 291 290 290 290 289 289 289 288 288 288 287 287 286 286 285 285 284 284 283 283 282 281 280 280 279 278 277 276 276 275 274
269 276 284 289 292 294 297 296 295 295 297 296 293 291 290 293 295 296 294 294 293 293 291 295 298 300 300 295 292 294 301 303 303 302 302 302 303 306 305 301 298 295 294 292 292 292 293 292 290 289 289 289 289 290 290 290 290 290 290 290 289 289 289 288 288 288 287 287 286 286 285 285 284 284 283 283 282 281 280 280 279 278 277 276 276 275
269 279 290 292 294 296 298 296 294 292 293 292 291 289 286 288 290 291 289 287 285 285 286 287 289 294 300 301 304 309 314 311 308 305 303 301 301 301 301 296 293 291 291 290 290 291 292 290 289 288 287 288 289 289 290 290 290 289 289 289 289 289 289 288 288 288 287 287 287 286 286 286 285 285 284 284 283 282 282 281 280 279 278 278 277 276
286 289 292 292 293 294 295 294 294 293 292 293 294 295 294 292 290 287 283 280 279 279 283 285 287 289 293 295 300 308 316 313 310 306 303 299 298 298 298 295 291 289 288 288 289 290 290 288 286 286 286 287 288 288 288 289 289 289 289 289 289 289 289 288 288 288 288 287 287 287 287 287 286 286 286 285 284 284 283 282 281 281 280 279 278 277
294 293 294 296 295 293 290 289 290 292 295 298 300 299 297 294 289 284 280 279 278 278 282 286 288 290 293 294 299 305 314 312 308 302 298 296 295 296 297 294 291 289 287 287 288 289 289 287 286 285 285 286 286 287 287 288 288 288 289 289 289 289 288 288 288 288 288 288 288 288 288 288 287 287 287 286 285 285 284 283 282 281 280 279 278 277
294 292 291 292 292 291 289 290 293 296 300 300 298 294 290 287 284 282 281 282 283 283 284 286 289 293 297 297 299 302 309 308 304 299 296 293 292 292 293 292 289 288 286 287 287 288 287 286 285 284 285 285 286 286 287 287 288 288 288 288 288 288 288 288 288 288 288 288 288 288 288 288 288 287 287 286 285 285 284 283 282 282 281 280 279 279
293 290 290 290 288 287 289 294 297 297 296 291 287 283 282 283 285 287 292 293 293 293 293 293 294 296 296 293 293 295 300 298 297 296 295 291 288 288 290 290 289 287 286 287 288 288 287 285 284 284 284 285 286 286 287 287 287 288 288 288 288 288 288 288 288 288 288 288 288 288 288 288 288 287 287 286 286 286 285 285 284 284 283 282 281 281
281 282 286 285 281 280 285 290 290 288 283 276 272 271 276 285 293 298 302 300 299 297 296 294 293 291 288 286 286 288 291 291 291 291 290 286 286 289 294 294 290 287 284 287 290 291 289 287 286 285 285 285 285 285 286 286 287 287 288 288 288 288 288 289 289 289 288 288 288 288 288 288 288 288 288 288 288 287 287 287 286 285 285 284 283 282
281 284 287 283 275 270 273 276 278 277 274 272 273 277 284 291 295 296 296 295 294 294 292 291 289 287 283 284 285 286 289 291 290 286 282 282 285 289 294 294 290 286 285 288 292 294 292 289 286 285 285 284 284 284 285 285 286 287 287 288 288 288 288 289 289 289 288 288 288 288 288 289 289 289 289 289 289 288 288 287 286 285 284 283 282 281
290 289 288 286 283 283 285 288 291 294 296 295 295 296 296 295 293 292 290 289 289 289 289 289 288 287 287 289 289 289 291 290 282 274 275 279 283 285 289 291 290 289 289 292 294 294 292 289 287 285 284 283 283 284 284 285 286 286 287 287 288 288 288 288 288 289 289 289 289 289 289 290 290 289 289 289 288 287 286 285 284 284 283 282 281 280
299 297 297 299 300 302 304 306 306 306 305 303 301 300 298 296 292 289 286 286 287 289 292 290 288 288 290 291 291 290 292 284 270 262 269 277 284 287 290 291 291 290 291 294 295 294 292 289 288 286 285 284 284 285 285 285 286 286 286 287 287 287 288 288 289 289 289 290 290 290 289 289 289 288 287 287 286 286 285 284 284 283 283 282 281 280
307 308 309 310 311 312 312 310 308 305 303 301 299 298 296 293 290 286 283 285 290 294 293 291 290 290 291 290 289 289 293 291 281 271 270 276 282 285 288 291 292 292 293 294 293 292 290 288 287 287 285 285 285 285 285 285 286 286 286 287 287 287 288 288 289 289 289 289 289 289 288 288 287 287 286 286 286 285 285 285 285 285 284 284 283 281
318 319 319 318 316 313 311 308 305 303 301 299 298 297 295 292 286 283 282 291 296 295 288 286 286 288 290 289 289 291 294 291 283 276 273 275 276 280 286 292 294 295 295 294 292 290 286 284 283 283 283 283 284 284 285 286 286 287 287 287 287 287 287 287 288 288 288 288 288 288 287 287 287 287 287 286 286 286 286 286 286 286 286 285 283 280
323 320 317 314 311 309 307 305 302 300 298 297 297 297 296 290 282 280 284 292 292 287 280 279 280 282 286 289 291 292 290 284 279 276 272 273 275 279 288 294 297 297 299 297 294 289 282 279 280 281 283 284 285 286 287 288 288 288 287 286 286 286 286 286 286 286 286 287 287 287 287 287 287 287 287 287 287 287 287 287 287 287 286 283 281 278
317 313 308 306 305 304 302 298 295 293 293 294 295 296 295 288 279 276 279 280 278 275 274 276 277 280 284 290 292 291 286 283 279 268 262 275 279 284 293 295 296 297 301 302 299 294 287 282 281 283 286 288 289 289 290 290 289 288 287 286 286 285 285 285 285 286 286 286 286 287 287 287 287 287 287 287 287 287 287 287 287 286 284 281 278 276
305 304 302 301 299 296 291 287 286 286 289 292 293 293 289 280 271 265 264 263 264 266 270 274 276 279 282 287 290 289 287 293 302 306 297 287 285 288 295 294 294 294 297 298 298 298 297 294 290 289 291 292 292 291 290 289 289 288 287 286 286 285 285 285 286 286 286 286 286 286 287 287 287 287 287 287 286 286 286 286 286 285 283 280 278 275
301 301 301 300 297 292 285 283 283 284 285 286 284 280 275 268 262 258 255 254 256 260 265 271 275 277 278 277 277 279 283 292 301 305 303 292 286 286 291 290 291 292 292 287 285 288 294 296 298 299 297 294 291 289 288 288 287 287 287 287 286 285 286 287 287 287 286 286 286 286 287 286 286 286 286 286 285 285 285 285 284 283 281 279 277 275
303 303 302 300 297 292 286 284 281 279 277 273 269 264 263 262 261 260 258 257 257 260 265 271 275 277 277 274 273 273 276 283 292 296 296 290 285 285 288 289 290 291 292 284 279 276 278 285 292 296 294 291 289 289 289 289 288 287 287 286 286 286 287 288 287 286 286 286 286 286 286 286 285 285 284 284 284 283 283 283 282 281 279 278 275 273
308 306 303 299 295 289 284 280 276 272 269 268 267 268 270 271 272 272 272 269 265 264 265 269 273 276 278 278 276 275 275 278 284 290 293 288 285 285 289 288 289 290 292 287 283 279 275 279 284 289 292 291 290 289 290 290 289 287 285 284 285 285 287 288 287 286 285 285 285 285 285 284 284 283 283 282 281 281 280 280 279 278 276 273 271 269
306 303 299 295 291 286 282 277 273 272 274 278 282 285 286 284 280 278 276 273 270 267 264 264 266 268 271 274 276 277 278 280 285 290 291 285 283 284 287 285 286 288 289 286 285 283 280 281 284 287 291 293 292 290 288 288 288 287 285 284 283 284 286 286 286 286 285 284 283 282 281 281 281 280 280 279 279 278 278 278 277 276 274 272 270 268
302 299 295 292 290 289 289 291 292 294 294 294 293 291 288 284 282 279 276 275 272 270 267 264 263 262 261 264 268 273 277 282 286 287 285 281 279 280 281 281 282 284 283 282 281 280 281 284 286 287 289 290 291 291 290 290 290 289 288 287 286 285 284 284 284 284 283 282 280 279 278 278 277 276 276 277 277 277 277 277 276 276 274 273 271 270
297 295 295 294 295 298 303 306 306 305 302 298 295 292 290 287 285 283 280 277 274 272 272 269 266 263 259 259 261 266 272 278 281 281 278 276 274 273 274 276 277 277 276 277 279 280 282 284 286 286 286 285 286 290 294 297 296 293 290 289 288 286 285 284 282 280 278 277 276 276 276 276 275 275 275 276 277 277 277 277 276 275 275 273 272 271
296 297 300 302 304 306 307 307 306 304 302 301 299 297 294 291 288 285 282 277 273 270 270 269 267 265 263 262 263 264 268 271 273 273 272 270 267 266 267 271 273 271 269 270 273 277 278 280 283 284 284 282 283 286 292 296 296 293 291 289 288 286 284 282 280 277 275 274 275 275 275 275 275 275 276 276 277 277 277 276 275 274 274 273 271 270
294 299 303 305 307 308 308 306 305 303 302 300 298 297 296 293 289 285 280 277 273 271 270 270 269 268 266 265 264 265 266 267 267 267 266 263 260 260 263 267 269 270 269 267 268 269 271 273 275 278 281 284 286 287 289 289 290 290 292 292 289 284 281 281 280 279 277 277 277 277 276 275 275 275 274 274 273 273 272 272 272 272 271 271 270 269
299 302 303 304 305 305 303 301 301 300 300 298 297 296 294 292 289 286 281 279 277 276 275 273 272 270 268 267 265 265 265 264 263 262 261 256 253 253 257 261 265 269 269 267 265 264 265 267 270 272 275 279 283 286 288 287 287 289 292 292 290 287 286 286 285 283 281 278 277 276 276 274 273 272 271 270 269 268 267 268 269 269 268 267 269 270
304 303 302 303 302 300 297 296 296 296 296 295 294 293 292 292 292 291 288 285 282 281 280 278 277 275 273 269 268 268 267 265 263 261 259 253 250 250 252 256 260 264 267 267 265 264 263 266 268 271 272 274 277 280 281 282 284 286 288 286 285 286 288 287 285 282 279 275 273 272 272 273 272 271 270 269 267 265 264 265 266 266 266 264 262 263
302 301 300 301 299 297 295 294 293 292 292 291 291 291 291 293 294 295 295 294 292 290 289 288 288 287 286 283 279 275 271 268 264 260 257 253 249 248 249 251 254 258 262 265 265 264 263 263 266 268 270 272 275 277 279 280 282 283 282 281 283 285 287 283 280 278 278 276 275 274 274 274 274 272 271 270 269 267 264 263 263 263 263 261 258 256
298 296 296 295 294 294 294 294 293 293 294 293 292 290 290 291 292 293 293 293 293 293 293 293 293 293 293 292 289 285 277 268 262 259 257 253 249 247 247 249 251 253 256 261 264 265 264 263 263 264 266 268 270 273 276 280 281 281 279 279 282 285 286 284 283 282 281 280 279 278 276 275 274 273 272 271 269 268 266 264 262 261 260 259 257 255
292 291 290 290 291 292 295 296 296 296 295 293 291 290 289 289 289 289 289 289 291 292 294 294 293 292 290 290 291 292 290 283 274 266 261 256 252 248 248 249 250 250 250 254 259 264 268 266 264 264 265 266 268 270 273 276 279 280 279 279 278 276 275 280 285 287 285 281 279 277 275 275 274 274 273 271 269 267 265 263 261 259 257 256 255 254
286 288 290 293 296 298 297 297 296 295 293 291 289 289 288 288 288 288 287 287 289 291 292 294 294 292 289 290 293 296 298 297 294 286 274 265 260 256 253 253 252 252 250 250 252 256 263 266 268 269 269 267 267 267 270 274 276 278 278 277 276 274 271 275 278 281 280 279 278 276 275 276 276 276 274 272 269 267 264 262 261 259 257 254 252 251
289 293 296 298 299 298 297 296 295 294 291 289 287 287 287 288 287 286 284 285 287 288 289 289 288 287 287 291 295 298 300 300 299 297 292 283 274 267 262 259 257 256 254 252 251 251 253 259 265 270 273 271 268 266 266 269 273 275 276 277 277 276 275 275 275 276 277 278 277 277 277 278 277 275 273 272 270 268 265 262 260 259 257 255 252 250
295 297 299 298 297 295 294 294 293 292 291 290 289 289 289 290 288 286 284 284 284 286 287 287 284 282 282 287 291 294 296 298 299 299 300 297 293 288 281 273 266 262 259 257 255 254 253 254 258 262 267 269 270 269 268 268 269 271 274 276 277 277 277 276 276 276 276 276 275 276 278 278 276 273 272 272 271 270 267 264 261 259 257 255 253 251
299 300 299 298 296 295 294 293 293 292 292 292 292 292 291 291 290 289 288 288 287 287 288 287 285 283 282 283 285 287 289 291 294 297 299 299 298 296 291 286 280 274 269 266 263 261 259 257 255 255 257 261 266 269 271 270 269 269 272 274 275 275 275 275 276 276 276 274 273 273 274 274 273 272 273 273 273 271 269 267 264 261 257 255 254 253
301 298 296 295 294 293 293 293 293 293 293 294 295 295 293 293 292 291 291 291 289 287 286 285 285 285 285 285 285 286 287 287 289 291 293 296 297 296 295 293 290 286 282 278 273 270 267 262 257 253 250 252 257 263 268 268 268 268 269 270 271 272 273 274 276 277 277 276 273 271 268 267 267 268 271 272 273 273 273 272 269 265 261 257 254 253
297 294 293 292 291 291 292 293 294 294 294 296 297 297 297 297 295 293 290 289 287 285 282 283 283 284 285 285 286 287 287 287 288 289 290 293 295 296 296 296 295 294 292 288 284 280 277 272 263 255 248 247 249 254 262 265 267 267 267 267 268 269 272 274 276 277 277 277 276 273 268 266 265 265 266 268 271 273 274 274 271 268 265 261 257 255
296 293 291 289 289 289 291 293 293 293 293 295 296 297 298 299 298 296 293 291 289 287 284 283 282 282 283 284 286 286 287 287 288 289 290 293 295 296 295 295 295 296 295 293 292 290 288 286 281 272 260 252 249 250 256 261 266 268 268 268 268 269 271 273 275 277 278 278 278 277 273 270 267 265 263 266 270 273 275 275 274 272 269 267 264 261